Theta_e
286 286 287 287 288 290 291 291 295 299 303 306 311 314 318 319 318 318 317 318 318 319 318 319 321 320 321 320 321 313 303 302 302 303 302 303 303 303 303 301 302 301 300
286 286 286 286 287 288 289 290 292 295 298 301 304 309 311 311 311 312 313 314 315 314 315 316 317 318 316 318 317 309 307 302 302 302 302 302 302 302 302 302 302 301 300
285 286 286 286 286 286 287 288 290 293 295 297 299 302 304 307 308 307 308 309 310 311 311 312 313 315 313 314 317 312 305 302 302 302 302 302 302 302 302 302 301 300 299
282 283 284 286 286 286 286 286 287 289 291 293 294 297 298 302 303 304 304 305 306 306 307 308 309 310 310 311 311 308 305 302 302 302 301 301 301 301 301 301 301 300 300
281 281 281 282 284 286 286 286 286 287 288 289 291 292 294 296 300 302 303 303 303 304 304 304 304 305 306 306 309 306 305 302 302 302 302 301 300 300 301 302 301 300 300
281 281 281 281 280 282 284 284 285 286 286 287 287 289 290 293 295 298 300 301 302 303 303 303 303 304 304 304 305 306 304 303 302 301 302 301 301 301 301 301 301 300 299
282 281 281 281 280 280 280 282 283 283 285 286 286 287 288 290 293 295 297 299 300 301 302 302 303 303 303 303 303 304 304 302 302 302 302 301 301 301 301 301 301 300 300
282 281 281 280 280 280 280 280 280 283 283 283 285 286 286 288 290 293 294 296 297 299 299 300 301 302 302 302 302 303 304 304 302 301 301 301 301 300 300 301 301 300 299
281 281 281 281 280 280 280 281 281 280 281 283 283 284 284 286 287 289 291 293 295 297 298 298 299 300 300 301 301 301 302 303 303 301 300 299 300 299 299 299 299 299 299
280 280 280 280 280 279 279 279 280 280 280 280 281 281 284 284 286 287 288 289 290 292 294 296 297 297 298 299 300 300 300 301 301 301 300 299 299 298 298 298 298 299 298
279 279 278 278 278 279 278 277 278 279 279 280 280 279 281 282 284 285 286 286 287 288 290 292 294 296 296 297 297 298 299 300 300 300 300 300 298 296 297 297 297 297 298
279 278 277 277 276 276 277 277 277 277 278 279 279 280 280 280 280 283 284 286 286 286 287 289 291 293 294 295 296 297 298 298 299 299 299 299 298 296 296 297 297 297 297
278 277 277 276 275 275 275 275 275 275 275 276 277 278 279 280 279 280 281 283 285 286 286 287 288 290 292 294 295 296 296 296 297 298 298 298 297 297 296 296 296 297 296
276 276 275 275 274 273 273 273 273 273 272 272 273 274 277 278 278 278 279 280 281 284 286 287 287 288 290 292 293 294 295 296 296 297 298 297 297 296 296 296 296 295 296
274 274 273 273 272 272 271 271 271 271 270 269 268 269 271 274 274 273 273 276 277 279 282 285 287 287 288 290 291 292 293 294 294 295 294 296 296 295 296 296 296 296 296
272 272 271 271 270 270 270 271 270 270 270 270 268 268 268 269 269 270 271 272 273 275 278 280 284 286 286 287 288 289 291 292 292 293 294 295 295 295 295 295 295 295 295
271 270 270 270 269 269 270 269 270 271 270 270 269 269 269 268 268 269 270 270 271 273 277 278 279 283 285 286 287 288 288 290 291 292 292 294 294 294 294 294 294 294 294
270 270 270 269 269 269 269 269 269 270 271 271 270 270 269 269 270 270 271 271 274 274 275 276 277 279 281 285 287 287 288 288 289 290 291 292 293 294 293 293 293 294 293
270 270 270 270 269 269 269 269 269 269 270 271 271 271 270 270 270 270 271 271 272 273 273 274 275 276 278 279 283 287 287 287 288 288 289 290 291 292 293 293 293 293 293
270 270 269 269 269 269 269 269 269 269 270 270 270 270 270 270 271 271 270 270 270 271 272 272 273 274 275 277 278 281 286 287 287 287 287 289 290 291 292 293 293 293 293
270 269 269 269 269 269 269 269 269 269 270 270 270 270 270 270 270 270 270 270 270 271 271 271 272 273 273 275 277 277 280 286 286 286 287 286 288 289 290 291 292 293 293
269 269 269 270 269 269 269 269 269 269 270 270 270 270 270 270 270 270 271 270 270 271 271 271 272 272 272 273 274 276 277 279 284 285 286 286 286 287 288 289 290 291 292
269 269 269 269 269 269 269 269 270 270 270 270 270 270 270 270 270 270 270 271 271 271 271 271 272 272 272 272 272 273 276 277 278 283 284 285 286 285 286 287 288 289 289
269 269 269 269 269 269 269 269 269 269 269 270 270 270 270 270 270 270 270 270 270 271 271 271 271 272 272 272 272 272 273 275 276 278 282 284 284 285 284 285 287 287 288
268 268 267 267 267 267 268 268 268 269 269 270 270 270 270 270 270 270 270 270 270 270 271 271 271 272 272 272 272 272 272 273 275 276 277 282 283 283 284 283 284 286 287
267 267 267 267 267 267 268 268 268 268 269 269 270 270 270 270 270 270 270 270 270 270 270 271 271 271 271 272 272 272 272 272 273 274 275 277 281 282 282 283 283 284 285
Wind_Speed
36 38 37 36 35 32 28 25 21 14 13 13 19 28 35 33 37 38 37 41 40 42 42 43 43 41 49 43 42 39 40 36 31 24 21 20 22 22 26 30 29 27 26
31 34 36 36 35 36 34 31 25 19 11 8 7 16 20 23 23 26 31 33 35 37 39 40 41 40 41 40 40 42 42 43 37 34 32 28 27 23 22 26 27 28 25
30 32 32 35 36 37 36 35 31 25 19 11 6 2 6 14 14 16 20 22 25 27 29 29 31 31 35 36 42 42 42 43 38 37 33 31 31 28 26 27 28 27 26
26 29 32 34 34 36 36 35 35 31 26 21 14 10 5 7 11 13 15 17 18 20 21 22 24 26 28 29 32 37 36 39 38 37 35 33 32 30 29 28 29 29 26
23 25 26 28 32 35 34 35 34 32 31 27 23 16 15 7 3 9 13 16 18 19 20 21 23 24 25 27 28 33 34 36 41 40 37 37 36 34 33 31 30 27 25
22 23 24 25 26 27 33 36 35 34 33 30 29 27 24 16 7 5 11 14 17 19 21 22 23 24 25 27 30 33 34 37 40 48 42 44 40 37 34 32 31 30 26
22 22 23 23 24 25 25 26 32 35 34 33 33 32 30 25 15 8 7 12 15 17 19 21 23 24 25 27 29 32 34 35 39 42 45 45 41 39 34 31 33 30 30
21 22 23 23 24 24 25 25 23 26 30 33 32 31 29 27 22 15 8 7 11 14 16 19 22 23 25 26 29 32 37 38 37 38 41 40 34 35 33 32 31 30 27
22 23 25 27 26 24 24 25 26 24 21 23 26 28 28 26 24 20 15 8 4 10 13 16 18 21 23 25 28 31 33 38 38 35 35 35 32 33 32 33 33 32 31
21 22 24 26 28 28 25 25 25 25 25 23 18 20 22 24 22 21 19 16 10 6 4 11 15 18 20 23 27 29 33 35 36 37 37 36 35 35 32 33 33 35 31
23 24 24 25 26 29 32 28 26 26 25 25 23 18 16 18 19 20 18 18 16 14 10 5 8 14 17 19 23 27 30 30 31 36 37 38 35 35 35 34 33 30 28
25 26 27 27 28 28 30 33 31 27 25 24 24 23 19 13 14 16 17 16 16 16 15 12 10 9 13 17 19 22 24 28 31 33 38 40 40 39 37 36 35 32 29
26 28 30 31 30 29 28 29 29 28 24 22 22 23 23 21 16 13 13 15 15 16 16 15 14 12 12 14 16 21 23 28 30 35 38 40 39 37 37 36 34 32 30
28 29 31 32 31 28 25 24 25 24 22 20 19 20 21 23 22 17 16 15 13 13 17 16 13 11 12 13 13 17 22 27 31 34 38 40 40 40 40 37 35 32 31
29 30 29 27 27 26 24 21 20 20 19 18 18 18 21 22 21 21 21 19 18 17 15 16 14 10 8 6 8 11 19 24 27 29 32 35 37 41 42 40 38 35 33
28 26 25 23 22 21 21 20 17 18 18 17 17 17 18 20 22 21 21 21 20 20 18 15 11 13 11 9 6 4 11 19 22 25 30 33 36 42 43 43 39 37 35
23 21 20 19 18 18 18 20 22 16 17 16 16 17 18 19 20 20 21 21 20 19 18 16 14 11 13 12 7 4 5 10 17 21 26 30 33 37 42 42 41 39 37
19 17 17 17 16 16 17 19 20 22 21 18 16 16 17 18 18 19 18 19 21 18 18 18 18 17 14 13 13 7 5 7 9 16 22 26 30 34 37 40 41 40 37
15 15 14 15 17 18 19 19 20 22 23 23 22 21 19 18 18 17 18 17 19 20 19 19 19 19 20 17 16 16 9 7 9 11 17 22 27 30 33 34 37 39 38
14 14 16 18 18 18 19 19 19 20 22 22 23 23 23 23 20 17 15 16 17 19 21 21 20 22 22 22 20 19 18 11 9 10 12 17 23 27 30 32 34 36 38
17 17 17 17 17 17 18 19 19 20 21 22 22 21 21 22 23 23 21 19 18 18 19 21 22 21 23 22 23 23 21 20 13 11 13 14 16 22 26 29 32 33 35
17 16 15 17 18 18 19 20 20 21 22 22 22 21 20 21 21 23 23 21 20 19 20 20 20 21 21 22 22 24 25 23 21 17 14 16 15 16 21 25 29 32 34
15 16 17 18 19 20 21 21 22 23 24 24 23 23 23 23 23 23 24 24 22 20 20 21 21 20 21 21 22 23 25 26 26 24 20 17 18 17 17 21 25 29 33
16 18 19 20 20 21 23 23 24 25 25 25 25 25 24 25 26 26 25 24 24 23 20 20 21 21 22 22 22 23 24 26 29 29 27 23 20 20 19 19 22 25 28
17 18 20 21 23 23 24 25 26 26 27 27 27 26 26 27 28 28 28 26 24 24 23 21 20 21 22 23 23 22 23 26 28 31 32 30 26 22 22 21 21 22 25
18 20 21 22 23 24 25 27 27 28 28 28 28 28 28 28 29 29 28 26 25 23 24 24 22 20 22 23 23 24 23 24 27 28 32 34 33 28 25 24 22 22 24
Wind_Direction
6 8 9 9 9 2 359 359 352 334 290 267 232 230 233 242 242 239 241 241 242 245 244 241 246 242 247 241 228 222 227 232 225 230 233 232 236 234 231 227 229 231 234
5 7 7 10 12 13 8 6 4 358 356 316 257 232 220 223 232 239 240 242 242 241 240 240 239 240 239 241 231 220 221 227 231 237 238 238 241 237 230 229 228 229 232
360 4 5 7 11 15 15 13 12 8 9 7 6 131 206 201 209 225 240 242 241 241 240 240 241 242 242 238 233 227 227 228 228 233 234 237 237 232 228 223 223 226 228
353 357 359 4 6 11 14 16 18 20 19 27 30 47 88 146 190 205 219 232 236 237 236 236 234 235 239 238 235 230 227 231 228 229 231 235 234 230 227 225 223 223 225
347 350 354 358 1 3 7 13 16 19 25 23 26 31 40 65 136 209 222 223 225 231 235 236 234 234 235 236 235 235 228 228 228 228 229 233 231 226 226 225 223 224 227
336 342 347 352 356 1 1 2 7 13 16 21 23 22 21 17 21 245 235 233 235 236 235 235 237 237 232 233 232 232 228 228 227 228 227 230 231 231 229 226 223 221 227
330 334 339 344 349 353 357 360 360 2 6 12 15 15 14 11 3 340 282 249 242 242 242 241 241 241 239 236 232 229 227 230 230 233 233 230 232 231 230 227 224 225 229
324 328 331 336 339 343 346 350 355 358 358 359 3 9 12 10 3 2 355 270 249 242 240 240 240 239 240 239 236 230 227 228 231 229 230 240 240 241 237 235 230 223 226
317 320 323 327 331 333 335 338 341 344 348 352 352 355 0 5 6 360 4 8 290 239 239 242 243 240 237 237 235 234 231 226 226 230 226 230 227 240 237 231 219 216 219
311 315 317 320 322 325 328 329 330 330 331 332 338 339 345 349 358 2 359 2 10 2 249 232 236 240 241 236 235 233 232 228 222 222 225 223 221 232 225 225 224 219 217
308 312 313 315 316 318 320 322 321 320 318 317 316 319 324 330 338 347 354 353 353 352 350 305 244 237 240 242 242 235 234 228 224 220 221 224 222 227 216 214 214 221 222
304 307 311 313 314 314 313 314 316 315 311 307 304 304 305 305 312 320 330 338 340 336 336 332 316 272 256 246 245 244 233 227 222 219 216 217 218 219 214 211 211 211 214
300 305 308 311 312 312 311 310 311 312 311 307 302 297 297 298 299 294 295 305 316 326 325 323 317 301 278 263 250 240 232 225 220 216 218 217 214 215 218 214 212 212 215
301 304 306 308 310 311 312 310 309 310 310 309 307 301 295 295 298 297 295 291 292 296 310 316 317 314 294 272 257 237 231 226 221 219 220 220 215 213 214 216 216 213 213
301 304 306 307 309 311 313 315 310 307 308 309 303 303 303 297 297 307 307 304 301 295 297 303 312 318 330 298 262 252 231 227 224 220 222 221 217 212 213 216 216 216 214
303 305 306 309 311 312 313 315 313 310 310 308 300 297 296 295 300 305 304 303 304 305 287 277 280 304 311 332 330 273 247 236 232 224 222 220 219 215 214 212 214 212 213
302 304 306 309 311 313 316 316 318 317 314 312 309 306 302 301 305 302 299 304 301 292 277 273 265 255 282 293 313 303 252 263 243 234 226 220 218 219 218 215 213 212 211
301 302 305 308 312 314 316 315 317 320 322 323 322 318 315 313 313 309 304 297 289 285 281 272 265 257 248 264 277 283 265 240 259 243 232 226 220 219 218 217 216 217 214
300 302 305 307 310 311 311 311 312 314 315 318 318 319 317 314 314 312 308 302 294 291 286 277 270 265 259 251 248 260 261 251 239 249 240 231 226 220 218 219 219 219 218
300 302 305 306 307 308 310 311 313 314 317 319 320 322 320 318 314 313 312 306 300 293 290 286 277 271 264 259 252 244 247 241 238 229 252 243 233 227 222 218 218 219 220
297 299 300 301 305 308 310 311 313 314 316 317 320 321 322 318 315 314 312 308 301 296 290 284 281 276 272 263 256 251 243 241 234 230 226 244 244 234 227 224 219 220 221
295 296 298 302 304 306 308 310 312 313 313 315 318 319 320 316 312 308 306 304 299 293 290 287 284 280 275 269 259 252 247 240 238 234 227 224 235 243 233 228 223 220 220
296 298 301 302 304 306 307 310 309 308 309 309 311 313 315 316 314 310 303 298 295 290 286 284 283 282 279 272 266 256 248 243 239 234 230 223 221 225 241 232 226 223 221
298 301 302 304 306 307 309 310 309 308 307 307 307 308 310 312 312 310 304 297 291 289 285 281 278 277 275 273 267 261 253 245 241 237 233 227 221 218 219 238 232 228 226
296 299 301 305 306 308 309 309 309 310 309 308 308 307 308 309 311 310 306 299 291 284 283 281 277 272 271 270 268 263 256 250 243 238 236 231 227 223 218 217 235 231 228
298 301 304 306 308 309 308 307 307 307 308 309 308 306 307 309 312 311 305 297 291 285 280 279 276 271 265 265 266 264 260 253 249 241 238 234 231 227 224 219 222 234 231